| time (UTC) | temp F | wind direction | speed knots | gust knots | rain 1hr in | rain 24hr in | rain mn in | humidity % | barometer mb |
| 20260506162127 | 58 | 351 | 0.9 | 2.6 | 0.00 | 0.00 | 0.00 | 90 | 1017.2 |
| 20260506161626 | 58 | 338 | 0.9 | 2.6 | 0.00 | 0.00 | 0.00 | 91 | 1017.2 |
| 20260506160125 | 56 | 51 | 0.0 | 2.6 | 0.00 | 0.00 | 0.00 | 93 | 1017.2 |
| 20260506155114 | 55 | 223 | 0.0 | 0.9 | 0.00 | 0.00 | 0.00 | 94 | 1017.0 |
| 20260506154602 | 55 | 106 | 0.0 | 0.9 | 0.00 | 0.00 | 0.00 | 95 | 1017.0 |
| 20260506153059 | 54 | 106 | 0.0 | 2.6 | 0.00 | 0.00 | 0.00 | 96 | 1017.0 |
| 20260506152100 | 54 | 54 | 0.0 | 1.7 | 0.00 | 0.00 | 0.00 | 97 | 1016.9 |
| 20260506151055 | 53 | 5 | 0.0 | 0.9 | 0.00 | 0.00 | 0.00 | 97 | 1016.8 |
| 20260506150038 | 53 | 215 | 0.0 | 1.7 | 0.00 | 0.00 | 0.00 | 98 | 1016.7 |
| 20260506145038 | 53 | 123 | 0.0 | 1.7 | 0.00 | 0.00 | 0.00 | 99 | 1016.6 |
| 20260506144040 | 52 | 76 | 0.0 | 1.7 | 0.00 | 0.00 | 0.00 | 100 | 1016.6 |
| 20260506143034 | 52 | 140 | 0.0 | 0.9 | 0.00 | 0.00 | 0.00 | 100 | 1016.4 |
| 20260506142034 | 51 | 170 | 0.0 | 0.9 | 0.00 | 0.00 | 0.00 | 100 | 1016.4 |
| 20260506141516 | 51 | 107 | 0.0 | 1.7 | 0.00 | 0.00 | 0.00 | 100 | 1016.3 |
| 20260506140014 | 51 | 170 | 0.0 | 1.7 | 0.00 | 0.00 | 0.00 | 100 | 1016.2 |
| 20260506135013 | 51 | 205 | 0.0 | 0.0 | 0.00 | 0.00 | 0.00 | 100 | 1016.1 |
| 20260506134440 | 51 | 205 | 0.0 | 0.9 | 0.00 | 0.01 | 0.00 | 100 | 1016.1 |
| 20260506132935 | 51 | 140 | 0.0 | 0.9 | 0.00 | 0.01 | 0.00 | 100 | 1016.0 |
| 20260506131858 | 51 | 77 | 0.0 | 1.7 | 0.00 | 0.01 | 0.00 | 100 | 1015.9 |
| 20260506130855 | 51 | 48 | 0.0 | 0.9 | 0.00 | 0.01 | 0.00 | 100 | 1015.9 |
| 20260506125842 | 51 | 49 | 0.0 | 0.9 | 0.00 | 0.01 | 0.00 | 100 | 1015.8 |
| 20260506124836 | 51 | 48 | 0.0 | 1.7 | 0.00 | 0.01 | 0.00 | 99 | 1015.8 |
| 20260506123837 | 51 | 109 | 0.0 | 0.9 | 0.00 | 0.01 | 0.00 | 99 | 1015.7 |
| 20260506121754 | 51 | 109 | 0.0 | 1.7 | 0.00 | 0.01 | 0.00 | 99 | 1015.6 |
| 20260506120743 | 51 | 107 | 0.0 | 1.7 | 0.00 | 0.01 | 0.00 | 99 | 1015.5 |
| 20260506120243 | 51 | 107 | 0.0 | 1.7 | 0.00 | 0.01 | 0.00 | 99 | 1015.5 |
| 20260506114742 | 51 | 42 | 0.0 | 2.6 | 0.00 | 0.01 | 0.00 | 99 | 1015.3 |
| 20260506113740 | 51 | 212 | 0.0 | 3.5 | 0.00 | 0.01 | 0.00 | 99 | 1015.3 |
| 20260506112732 | 51 | 153 | 0.0 | 3.5 | 0.00 | 0.01 | 0.00 | 99 | 1015.2 |
| 20260506111727 | 51 | 66 | 0.9 | 3.5 | 0.00 | 0.01 | 0.00 | 99 | 1015.2 |
| 20260506110721 | 51 | 117 | 0.9 | 2.6 | 0.00 | 0.01 | 0.00 | 98 | 1015.2 |
| 20260506110208 | 51 | 192 | 0.0 | 1.7 | 0.00 | 0.01 | 0.00 | 98 | 1015.1 |
| 20260506104656 | 51 | 220 | 0.0 | 2.6 | 0.00 | 0.01 | 0.00 | 98 | 1014.9 |
| 20260506102629 | 51 | 211 | 0.0 | 2.6 | 0.00 | 0.01 | 0.00 | 98 | 1014.7 |
| 20260506101621 | 51 | 141 | 0.0 | 0.9 | 0.00 | 0.01 | 0.00 | 98 | 1014.8 |
| 20260506100619 | 51 | 207 | 0.0 | 0.0 | 0.00 | 0.01 | 0.00 | 98 | 1014.9 |
| 20260506095553 | 51 | 207 | 0.0 | 0.0 | 0.00 | 0.01 | 0.00 | 98 | 1014.9 |
| 20260506094551 | 51 | 207 | 0.0 | 0.0 | 0.00 | 0.01 | 0.00 | 97 | 1014.9 |
| 20260506094034 | 51 | 207 | 0.0 | 0.0 | 0.00 | 0.01 | 0.00 | 97 | 1014.8 |
| 20260506093036 | 51 | 207 | 0.0 | 0.9 | 0.00 | 0.01 | 0.00 | 97 | 1014.8 |
| 20260506091522 | 51 | 207 | 0.0 | 0.0 | 0.00 | 0.01 | 0.00 | 97 | 1014.8 |
| 20260506090501 | 51 | 207 | 0.0 | 1.7 | 0.00 | 0.01 | 0.00 | 97 | 1014.8 |
| 20260506085952 | 51 | 223 | 0.0 | 0.9 | 0.00 | 0.01 | 0.00 | 97 | 1014.9 |
| 20260506084421 | 50 | 223 | 0.0 | 0.9 | 0.00 | 0.01 | 0.00 | 97 | 1014.9 |
| 20260506083418 | 50 | 223 | 0.0 | 0.9 | 0.00 | 0.02 | 0.00 | 97 | 1014.9 |
| 20260506082411 | 50 | 242 | 0.0 | 1.7 | 0.00 | 0.03 | 0.00 | 97 | 1014.9 |
| 20260506081355 | 50 | 190 | 0.0 | 0.9 | 0.00 | 0.05 | 0.00 | 97 | 1014.8 |
| 20260506080353 | 50 | 219 | 0.0 | 0.9 | 0.00 | 0.06 | 0.00 | 97 | 1014.8 |
| 20260506073337 | 50 | 257 | 0.0 | 1.7 | 0.00 | 0.07 | 0.00 | 97 | 1014.7 |
| 20260506072339 | 50 | 24 | 0.0 | 0.9 | 0.00 | 0.07 | 0.00 | 97 | 1014.7 |
| 20260506071337 | 51 | 25 | 0.0 | 3.5 | 0.00 | 0.09 | 0.00 | 97 | 1014.5 |
| 20260506070336 | 51 | 207 | 0.0 | 0.9 | 0.00 | 0.09 | 0.00 | 97 | 1014.3 |
| 20260506062236 | 51 | 212 | 0.0 | 0.9 | 0.00 | 0.11 | 0.09 | 98 | 1014.5 |
| 20260506061226 | 50 | 212 | 0.0 | 0.9 | 0.00 | 0.13 | 0.09 | 98 | 1014.2 |
| 20260506060158 | 50 | 212 | 0.0 | 1.7 | 0.00 | 0.14 | 0.09 | 98 | 1014.1 |
| 20260506051122 | 49 | 198 | 0.0 | 0.9 | 0.00 | 0.16 | 0.09 | 99 | 1013.9 |
| 20260506050614 | 49 | 198 | 0.0 | 0.0 | 0.00 | 0.17 | 0.09 | 98 | 1013.9 |
| 20260506045105 | 49 | 198 | 0.0 | 0.0 | 0.00 | 0.18 | 0.09 | 98 | 1013.9 |
| 20260506044540 | 49 | 198 | 0.0 | 0.0 | 0.00 | 0.20 | 0.09 | 97 | 1013.8 |
| 20260506043037 | 49 | 198 | 0.0 | 0.0 | 0.00 | 0.23 | 0.09 | 97 | 1013.6 |
| 20260506042032 | 50 | 198 | 0.0 | 0.0 | 0.00 | 0.25 | 0.09 | 97 | 1013.5 |
| 20260506041032 | 50 | 198 | 0.0 | 0.9 | 0.00 | 0.27 | 0.09 | 97 | 1013.2 |
| 20260506040031 | 51 | 279 | 0.0 | 0.9 | 0.00 | 0.28 | 0.09 | 96 | 1013.2 |
| 20260506035013 | 51 | 205 | 0.0 | 2.6 | 0.00 | 0.28 | 0.09 | 95 | 1013.1 |
| 20260506034013 | 51 | 231 | 0.0 | 1.7 | 0.00 | 0.29 | 0.09 | 95 | 1012.9 |
| 20260506033009 | 51 | 220 | 0.0 | 1.7 | 0.00 | 0.29 | 0.09 | 94 | 1012.8 |
| 20260506031956 | 52 | 217 | 0.0 | 3.5 | 0.00 | 0.29 | 0.09 | 93 | 1012.8 |
| 20260506031436 | 53 | 228 | 0.9 | 1.7 | 0.00 | 0.31 | 0.09 | 92 | 1012.6 |
| 20260506025928 | 53 | 204 | 0.9 | 4.3 | 0.00 | 0.31 | 0.09 | 91 | 1012.5 |
| 20260506024925 | 54 | 130 | 0.0 | 0.9 | 0.00 | 0.31 | 0.09 | 91 | 1012.6 |
| 20260506023908 | 54 | 131 | 0.0 | 0.9 | 0.00 | 0.33 | 0.09 | 90 | 1012.5 |
| 20260506022858 | 54 | 131 | 0.0 | 1.7 | 0.00 | 0.35 | 0.09 | 90 | 1012.4 |
| 20260506021855 | 54 | 202 | 0.0 | 4.3 | 0.00 | 0.35 | 0.09 | 90 | 1012.3 |
| 20260506020845 | 55 | 238 | 0.9 | 4.3 | 0.00 | 0.36 | 0.09 | 90 | 1012.1 |
| 20260506015842 | 55 | 211 | 0.0 | 3.5 | 0.00 | 0.37 | 0.09 | 89 | 1012.2 |
| 20260506015342 | 55 | 198 | 0.0 | 2.6 | 0.00 | 0.38 | 0.09 | 90 | 1012.3 |
| 20260506013841 | 55 | 323 | 0.0 | 2.6 | 0.00 | 0.38 | 0.09 | 90 | 1012.2 |
| 20260506012817 | 55 | 240 | 0.0 | 2.6 | 0.00 | 0.39 | 0.09 | 90 | 1012.4 |
| 20260506011811 | 55 | 257 | 0.9 | 4.3 | 0.00 | 0.39 | 0.09 | 90 | 1012.2 |
| 20260506010810 | 55 | 52 | 0.9 | 4.3 | 0.00 | 0.39 | 0.09 | 90 | 1012.3 |
| 20260506005810 | 56 | 219 | 0.9 | 3.5 | 0.00 | 0.40 | 0.09 | 89 | 1012.2 |
| 20260506004811 | 56 | 214 | 0.9 | 4.3 | 0.00 | 0.41 | 0.09 | 89 | 1012.1 |
| 20260506003806 | 56 | 236 | 0.9 | 4.3 | 0.00 | 0.43 | 0.09 | 90 | 1012.2 |
| 20260506002806 | 57 | 252 | 0.0 | 3.5 | 0.00 | 0.44 | 0.09 | 89 | 1012.2 |
| 20260506002306 | 57 | 219 | 0.9 | 5.2 | 0.00 | 0.46 | 0.09 | 89 | 1012.1 |
| 20260506000801 | 57 | 194 | 0.9 | 4.3 | 0.00 | 0.48 | 0.09 | 87 | 1012.1 |
| 20260505235802 | 58 | 230 | 0.9 | 5.2 | 0.00 | 0.49 | 0.09 | 87 | 1012.0 |
| 20260505233753 | 58 | 238 | 1.7 | 5.2 | 0.00 | 0.50 | 0.09 | 86 | 1012.1 |
| 20260505232745 | 58 | 236 | 1.7 | 7.8 | 0.00 | 0.51 | 0.09 | 86 | 1012.2 |
| 20260505231739 | 60 | 218 | 0.0 | 3.5 | 0.00 | 0.51 | 0.09 | 83 | 1012.1 |
| 20260505230740 | 60 | 196 | 1.7 | 7.8 | 0.00 | 0.52 | 0.09 | 85 | 1012.1 |
| 20260505225739 | 60 | 193 | 2.6 | 6.1 | 0.00 | 0.52 | 0.09 | 83 | 1012.1 |
| 20260505224733 | 60 | 153 | 1.7 | 9.6 | 0.00 | 0.53 | 0.09 | 85 | 1012.1 |
| 20260505223729 | 60 | 202 | 2.6 | 7.8 | 0.00 | 0.53 | 0.09 | 87 | 1012.0 |
| 20260505222730 | 60 | 198 | 1.7 | 7.8 | 0.00 | 0.53 | 0.09 | 86 | 1012.2 |
| 20260505221731 | 60 | 239 | 0.9 | 5.2 | 0.00 | 0.53 | 0.09 | 84 | 1012.3 |
| 20260505220715 | 60 | 199 | 1.7 | 6.1 | 0.00 | 0.54 | 0.09 | 83 | 1012.2 |
| 20260505215705 | 61 | 203 | 1.7 | 5.2 | 0.00 | 0.54 | 0.09 | 82 | 1012.3 |
| 20260505214701 | 62 | 202 | 2.6 | 6.1 | 0.00 | 0.54 | 0.09 | 82 | 1012.3 |
| 20260505214202 | 63 | 246 | 2.6 | 8.7 | 0.00 | 0.54 | 0.09 | 82 | 1012.3 |
| 20260505211659 | 60 | 225 | 1.7 | 8.7 | 0.00 | 0.54 | 0.09 | 85 | 1012.5 |
| 20260505210658 | 61 | 252 | 0.9 | 5.2 | 0.00 | 0.54 | 0.09 | 85 | 1012.5 |
| 20260505205653 | 60 | 225 | 0.9 | 3.5 | 0.00 | 0.54 | 0.09 | 88 | 1012.5 |
| 20260505204649 | 59 | 194 | 0.9 | 9.6 | 0.00 | 0.54 | 0.09 | 92 | 1012.5 |
| 20260505203649 | 59 | 145 | 0.0 | 2.6 | 0.00 | 0.54 | 0.09 | 98 | 1012.4 |
| 20260505202649 | 58 | 221 | 0.9 | 4.3 | 0.00 | 0.54 | 0.09 | 99 | 1012.5 |
| 20260505201643 | 57 | 109 | 0.9 | 6.1 | 0.00 | 0.54 | 0.09 | 99 | 1012.5 |
| 20260505200639 | 56 | 100 | 0.9 | 5.2 | 0.00 | 0.54 | 0.09 | 99 | 1012.6 |
| 20260505195641 | 56 | 140 | 0.9 | 3.5 | 0.00 | 0.54 | 0.09 | 100 | 1012.6 |
| 20260505194635 | 55 | 234 | 0.9 | 4.3 | 0.00 | 0.54 | 0.09 | 99 | 1012.6 |
| 20260505193635 | 55 | 217 | 0.9 | 7.8 | 0.00 | 0.54 | 0.09 | 99 | 1012.7 |
| 20260505192636 | 55 | 121 | 0.9 | 4.3 | 0.00 | 0.54 | 0.09 | 99 | 1012.6 |
| 20260505191635 | 55 | 208 | 0.9 | 5.2 | 0.00 | 0.54 | 0.09 | 99 | 1012.6 |
| 20260505190611 | 55 | 150 | 0.9 | 7.0 | 0.00 | 0.54 | 0.09 | 99 | 1012.6 |
| 20260505185612 | 56 | 54 | 0.9 | 5.2 | 0.00 | 0.54 | 0.09 | 100 | 1012.4 |
| 20260505185100 | 56 | 102 | 0.9 | 4.3 | 0.00 | 0.54 | 0.09 | 100 | 1012.5 |
| 20260505183554 | 55 | 119 | 0.9 | 4.3 | 0.00 | 0.54 | 0.09 | 100 | 1012.4 |
| 20260505183055 | 55 | 148 | 0.9 | 3.5 | 0.00 | 0.54 | 0.09 | 100 | 1012.5 |
| 20260505181555 | 55 | 46 | 0.9 | 6.1 | 0.00 | 0.54 | 0.09 | 100 | 1012.3 |
| 20260505181056 | 55 | 194 | 0.9 | 5.2 | 0.00 | 0.54 | 0.09 | 100 | 1012.4 |
| 20260505175554 | 54 | 90 | 0.9 | 6.1 | 0.00 | 0.54 | 0.09 | 100 | 1012.3 |
| 20260505174548 | 53 | 65 | 0.9 | 3.5 | 0.00 | 0.54 | 0.09 | 100 | 1012.1 |
| 20260505173538 | 54 | 225 | 0.9 | 5.2 | 0.00 | 0.54 | 0.09 | 100 | 1012.1 |
| 20260505172541 | 53 | 244 | 0.9 | 7.8 | 0.00 | 0.54 | 0.09 | 100 | 1012.0 |
| 20260505171538 | 52 | 144 | 0.9 | 5.2 | 0.00 | 0.54 | 0.09 | 100 | 1012.0 |
| 20260505170540 | 52 | 102 | 0.9 | 3.5 | 0.00 | 0.54 | 0.09 | 100 | 1012.0 |
| 20260505165528 | 52 | 240 | 0.9 | 5.2 | 0.00 | 0.54 | 0.09 | 100 | 1012.0 |
| 20260505164524 | 52 | 46 | 0.9 | 5.2 | 0.00 | 0.54 | 0.09 | 100 | 1011.9 |